Flag for Germany Weather past 2 weeks in Nuremberg, Bavaria, Germany

Now
54 °F

Scattered clouds.


Feels Like: 50 °F
Forecast: 42 / 59 °F
Wind: 12 mph from West

Location: Nuernberg

Current Time: Sep 22, 2014 at 3:18:35 PM

Latest Report: Sep 22, 2014 at 2:50 PM


Visibility: N/A

Pressure: 29.98 "Hg

Humidity: 82%

Dew point: 48 °F

Location of NurembergLocation

Historic Weather in Nuremberg — Graph

°F

Nuremberg temperature yesterday

Maximum temperature yesterday: 64 °F (at 5:20 PM)
Minimum temperature yesterday: 54 °F (at 4:50 AM)
Average temperature yesterday: 59 °F

Past Weeks' High & Low Weather Summary

 TemperatureHumidityPressure
High77 °F (Sep 7, 2:20 PM)100% (Sep 7, 8:20 PM)30.12 "Hg (Sep 7, 8:20 PM)
Low46 °F (Sep 11, 5:50 AM)51% (Sep 7, 2:50 PM)29.89 "Hg (Sep 17, 5:50 PM)
Average60 °F88%30.00 "Hg
* Reported Sep 7 2:20 PM — Sep 22 2:20 PM, Nuremberg, Weather by CustomWeather, © 2014

Note: Actual official high and low records may vary slightly from our data, if they occured in-between our weather recording intervals... More about our weather records

Advertising

Nuremberg weather history for previous 24 hours

 ConditionsComfort  
Time TempWeatherWind HumidityBarometerVisibility
2:20 PM
Sep 22
52 °FSprinkles. Partly sunny.22 mph82%29.98 "HgN/A
1:50 PM55 °FPartly sunny.16 mph72%29.98 "HgN/A
1:20 PM54 °FPartly sunny.18 mph77%30.01 "HgN/A
12:50 PM54 °FPartly sunny.17 mph77%30.01 "HgN/A
12:20 PM54 °FPartly sunny.20 mph82%30.01 "HgN/A
11:50 AM54 °FPartly sunny.17 mph82%30.01 "HgN/A
11:20 AM52 °FLight rain. Partly sunny.14 mph88%30.04 "HgN/A
10:50 AM54 °FPartly sunny.15 mph82%30.04 "HgN/A
10:20 AM52 °FPartly sunny.15 mph88%30.04 "HgN/A
9:50 AM52 °FPartly sunny.13 mph88%30.04 "HgN/A
9:20 AM52 °FPartly sunny.13 mph94%30.04 "HgN/A
8:50 AM50 °FBroken clouds.9 mph100%30.04 "Hg6 mi
8:20 AM50 °FPartly sunny.9 mph100%30.04 "Hg5 mi
7:50 AM50 °FSprinkles. Partly cloudy.9 mph94%30.04 "Hg5 mi
7:20 AM50 °FSprinkles. Passing clouds.9 mph100%30.04 "Hg3 mi
6:50 AM50 °FPassing clouds.9 mph94%30.04 "HgN/A
6:20 AM50 °FPartly cloudy.7 mph94%30.04 "HgN/A
5:50 AM50 °FPartly cloudy.10 mph94%30.04 "HgN/A
5:20 AM50 °FPassing clouds.6 mph94%30.04 "HgN/A
4:50 AM50 °FPassing clouds.7 mph94%30.04 "HgN/A
4:20 AM50 °FPassing clouds.6 mph94%30.04 "HgN/A
3:50 AM50 °FPassing clouds.7 mph100%30.04 "HgN/A
3:20 AM52 °FPartly cloudy.8 mph94%30.04 "HgN/A
2:50 AM52 °FPartly cloudy.6 mph94%30.04 "HgN/A
2:20 AM52 °FPassing clouds.7 mph94%30.04 "HgN/A
1:50 AM52 °FPassing clouds.7 mph100%30.04 "HgN/A
1:20 AM54 °FPassing clouds.6 mph94%30.04 "HgN/A
12:50 AM54 °FPassing clouds.3 mph94%30.01 "HgN/A
12:20 AM55 °FPassing clouds.7 mph88%30.01 "HgN/A
11:50 PM
Sep 21
55 °FPartly cloudy.8 mph94%30.01 "HgN/A
11:20 PM55 °FPartly cloudy.6 mph94%30.01 "HgN/A
10:20 PM55 °FPassing clouds.5 mph100%29.98 "HgN/A
9:50 PM55 °FPartly cloudy.5 mph100%29.98 "HgN/A
9:20 PM55 °FPassing clouds.5 mph100%29.98 "HgN/A
8:20 PM55 °FLight rain. Partly cloudy.6 mph100%29.98 "HgN/A
7:50 PM55 °FRain. Broken clouds.7 mph100%29.95 "HgN/A
7:20 PM57 °FLight rain. Broken clouds.13 mph94%29.95 "HgN/A
6:50 PM59 °FRain showers. Partly sunny.12 mph100%29.92 "Hg6 mi
6:20 PM61 °FSprinkles. Broken clouds.7 mph100%29.92 "HgN/A
5:50 PM63 °FBroken clouds.3 mph88%29.92 "HgN/A
5:20 PM64 °FBroken clouds.3 mph83%29.92 "HgN/A
4:20 PM63 °FBroken clouds.8 mph88%29.92 "HgN/A
3:50 PM63 °FPartly sunny.7 mph88%29.92 "HgN/A
3:20 PM61 °FSprinkles. Scattered clouds.5 mph100%29.92 "HgN/A
Weather by CustomWeather, © 2014

See weather overviewHow to use our weather pages